[[{"header":{"parameterUnit":"m.s-1","parameterCategory":2,"la1":30.2992,"la2":30.254,"lo1":-89.0895,"lo2":-89.0443,"dy":0.0025,"dx":0.0025,"nx":19,"ny":19,"refTime":"2026-03-08T09:00:00:Z","depth":"0","parameterNumber":2,"parameterNumberName":"U-component_of_CURRENTS"},"data":[0,0,0,-0.3468,-0.347,-0.3553,-0.3553,-0.3511,-0.351,0,0,0,0,0,0,0,0,0,0,0,-0.3432,-0.3433,-0.3467,-0.347,-0.3553,-0.3554,-0.3511,-0.351,0,0,0,0,0,0,0,0,0,0,0,-0.3432,-0.3433,-0.3433,-0.347,-0.3553,-0.3554,-0.3511,-0.3484,0,0,0,0,0,0,0,0,0,0,-0.3421,-0.3375,-0.3433,-0.3433,-0.3471,-0.3553,-0.3554,-0.3484,-0.3486,-0.3432,0,-0.345,0,-0.348,-0.3505,-0.3504,0,0,0,-0.3465,-0.3374,-0.3435,-0.3434,-0.3471,-0.3553,-0.3514,-0.3486,-0.3488,-0.3433,-0.345,-0.345,-0.348,-0.3504,-0.3504,-0.3446,-0.3446,0,0,-0.346,-0.3405,-0.3435,-0.3436,-0.3496,-0.3511,-0.3517,-0.3489,-0.3463,-0.345,-0.345,-0.3479,-0.3503,-0.3503,-0.3446,-0.3446,0,0,0,-0.345,-0.3401,-0.3466,-0.3436,-0.3465,-0.3514,-0.352,-0.3465,-0.3498,-0.3449,-0.3478,-0.3503,-0.3502,-0.3446,-0.3446,-0.3485,0,0,0,-0.3447,-0.3398,-0.3464,-0.3426,-0.3466,-0.3476,-0.3495,-0.35,-0.3499,-0.3479,-0.3503,-0.3501,-0.3446,-0.3446,-0.3484,-0.341,0,0,0,-0.3428,-0.3394,-0.3415,-0.3424,-0.3469,-0.3479,-0.351,-0.3501,-0.3515,-0.3504,-0.3501,-0.3446,-0.3446,-0.3483,-0.3412,-0.3224,0,0,0,-0.3355,-0.3383,-0.3413,-0.3467,-0.3468,-0.3566,-0.3511,-0.354,-0.3538,-0.3502,-0.3446,-0.3446,-0.3482,-0.3412,-0.3227,-0.2944,-0.2904,0,0,-0.3361,-0.338,-0.3429,-0.3461,-0.3556,-0.3554,-0.3589,-0.3547,-0.3513,-0.3443,-0.3443,-0.3484,-0.3412,-0.3224,-0.2947,-0.2906,0,0,0,-0.3417,-0.3435,-0.3479,-0.3536,-0.3614,-0.3598,-0.3596,-0.3569,-0.3515,-0.3513,-0.3474,-0.3424,-0.3305,-0.3144,-0.3112,-0.3062,-0.3446,-0.3446,-0.3446,-0.3261,-0.3383,-0.3446,-0.3565,-0.3602,-0.362,-0.358,-0.3522,-0.3545,-0.3516,-0.3454,-0.3324,-0.3162,-0.3132,-0.309,-0.3497,-0.3497,-0.3497,-0.3497,-0.3254,-0.3283,-0.3402,-0.351,-0.3533,-0.3546,-0.3514,-0.3503,-0.3369,-0.3458,-0.3341,-0.3191,-0.3098,-0.3066,-0.3499,-0.3499,-0.3498,-0.3498,-0.3498,-0.3149,-0.3168,-0.3281,-0.338,-0.3399,-0.345,-0.3321,-0.3349,-0.3314,-0.3242,-0.2955,-0.2951,-0.2907,-0.318,-0.3179,-0.3178,-0.3177,-0.3176,-0.3176,-0.2944,-0.3063,-0.3087,-0.322,-0.3231,-0.3218,-0.3187,-0.3068,-0.2906,-0.2875,-0.2872,-0.2832,-0.3222,-0.3217,-0.3159,-0.3162,-0.3164,-0.3166,-0.3167,-0.2754,-0.2809,-0.2853,-0.2883,-0.2915,-0.2764,-0.2821,-0.2533,-0.2412,-0.2252,-0.2329,-0.263,-0.2533,-0.2557,-0.2532,-0.2299,-0.2299,-0.2299,-0.2298,-0.2541,-0.2603,-0.2601,-0.2611,-0.2568,-0.2536,-0.2107,-0.1976,-0.1909,-0.185,-0.1955,-0.2042,-0.2079,-0.1966,-0.2003,-0.1971,-0.1601,-0.16,-0.16,-0.2342,-0.2414,-0.2347,-0.246,-0.2428,-0.2213,-0.1734,-0.1421,-0.1429,-0.1583,-0.1943,-0.1973,-0.2132,-0.2194,-0.2051,-0.2107,-0.207,0,0]},{"header":{"parameterUnit":"m.s-1","parameterCategory":2,"la1":30.2992,"la2":30.254,"lo1":-89.0895,"lo2":-89.0443,"dy":0.0025,"dx":0.0025,"nx":19,"ny":19,"refTime":"2026-03-08T09:00:00:Z","depth":"0","parameterNumber":3,"parameterNumberName":"V-component_of_CURRENTS"},"data":[0,0,0,0.0809,0.081,0.0896,0.0897,0.1042,0.1043,0,0,0,0,0,0,0,0,0,0,0,0.0779,0.0779,0.0809,0.081,0.0896,0.0897,0.1042,0.1043,0,0,0,0,0,0,0,0,0,0,0,0.0779,0.0779,0.0779,0.081,0.0896,0.0897,0.1042,0.0976,0,0,0,0,0,0,0,0,0,0,0.0892,0.0843,0.0779,0.0779,0.081,0.0896,0.0897,0.0973,0.0981,0.1001,0,0.0988,0,0.1003,0.105,0.1051,0,0,0,0.0846,0.0837,0.0856,0.0779,0.081,0.0896,0.0868,0.0977,0.0986,0.1011,0.0991,0.0996,0.1006,0.1051,0.1051,0.0945,0.0943,0,0,0.0841,0.0809,0.085,0.086,0.08,0.0864,0.087,0.0982,0.0979,0.0991,0.0999,0.1008,0.1052,0.1052,0.0947,0.0944,0,0,0,0.0803,0.0805,0.0822,0.0854,0.0858,0.0866,0.0872,0.0975,0.0978,0.1001,0.101,0.1052,0.1053,0.0949,0.0946,0.0763,0,0,0,0.0802,0.078,0.0819,0.0803,0.0855,0.0911,0.0862,0.0971,0.0984,0.1009,0.1052,0.1055,0.0951,0.0947,0.0773,0.0721,0,0,0,0.0781,0.0779,0.0777,0.0801,0.0822,0.0909,0.0921,0.0975,0.0988,0.1051,0.1055,0.0952,0.0948,0.0782,0.0735,0.0821,0,0,0,0.0764,0.0678,0.0776,0.0676,0.082,0.0759,0.0921,0.0916,0.0949,0.1053,0.0951,0.0946,0.0784,0.0743,0.0826,0.0936,0.0921,0,0,0.063,0.0661,0.0596,0.0684,0.0558,0.0753,0.0649,0.0783,0.0886,0.0929,0.0927,0.077,0.0736,0.0822,0.0665,0.0659,0,0,0,0.0536,0.048,0.0458,0.0419,0.0442,0.0468,0.0597,0.0658,0.0708,0.0879,0.0725,0.0709,0.0772,0.0845,0.0838,0.1027,0.0924,0.0925,0.0925,0.0313,0.0315,0.0185,0.0185,0.0173,0.0268,0.0312,0.0417,0.0531,0.0508,0.0526,0.0417,0.0482,0.0481,0.0667,0.0473,0.0472,0.0471,0.0471,0.0062,-0.0023,-0.0007,-0.0119,-0.006,-0.0089,0.004,0.0144,0.0254,0.0312,0.0384,0.0601,0.0464,0.0666,0.0459,0.0461,0.0462,0.0463,0.0464,-0.0095,-0.0137,-0.0177,-0.0295,-0.0342,-0.0265,-0.023,-0.0105,0.0098,0.0131,0.038,0.0386,0.0614,0.0214,0.0214,0.0214,0.0214,0.0215,0.0215,-0.022,-0.0274,-0.0388,-0.0474,-0.0511,-0.0516,-0.036,-0.021,0.0066,0.0214,0.0218,0.0573,0.0343,0.0412,0.0215,0.0215,0.0215,0.0215,0.0215,-0.0412,-0.0403,-0.0582,-0.0645,-0.0726,-0.0665,-0.0511,-0.0098,0.0093,0.0293,0.059,0.0322,0.0441,0.0448,0.052,0.0365,0.0365,0.0365,0.0365,-0.0506,-0.0532,-0.074,-0.0853,-0.0902,-0.0754,-0.0358,0.012,0.0591,0.0735,0.0752,0.0797,0.0783,0.0927,0.0923,0.1006,0.0978,0.0979,0.098,-0.0612,-0.0668,-0.0819,-0.0934,-0.0979,-0.0761,-0.0252,0.0592,0.1022,0.102,0.0985,0.0959,0.1038,0.1001,0.1237,0.1217,0.1358,0,0]}],[{"header":{"parameterUnit":"m.s-1","parameterCategory":2,"la1":30.2992,"la2":30.254,"lo1":-89.0895,"lo2":-89.0443,"dy":0.0025,"dx":0.0025,"nx":19,"ny":19,"refTime":"2026-03-08T09:00:00:Z","depth":"2","parameterNumber":2,"parameterNumberName":"U-component_of_CURRENTS"},"data":[0,0,0,-0.2493,-0.2495,-0.2582,-0.2582,-0.2623,-0.2623,0,0,0,0,0,0,0,0,0,0,0,-0.2425,-0.2424,-0.2493,-0.2495,-0.2581,-0.2582,-0.2623,-0.2623,0,0,0,0,0,0,0,0,0,0,0,-0.2425,-0.2424,-0.2423,-0.2495,-0.2581,-0.2582,-0.2623,-0.2577,0,0,0,0,0,0,0,0,0,0,-0.2503,-0.2522,-0.2424,-0.2423,-0.2496,-0.2581,-0.2582,-0.2576,-0.258,-0.2561,0,-0.2538,0,-0.2591,-0.2623,-0.2623,0,0,0,-0.2505,-0.2519,-0.2469,-0.2423,-0.2496,-0.2581,-0.2545,-0.2579,-0.2583,-0.2566,-0.2539,-0.2542,-0.2592,-0.2623,-0.2623,-0.2612,-0.2612,0,0,-0.25,-0.2521,-0.2466,-0.2471,-0.247,-0.2542,-0.2548,-0.2583,-0.2608,-0.2539,-0.2545,-0.2593,-0.2623,-0.2623,-0.2612,-0.2612,0,0,0,-0.248,-0.2518,-0.2471,-0.2467,-0.2494,-0.2545,-0.2551,-0.2608,-0.2569,-0.2546,-0.2593,-0.2623,-0.2623,-0.2612,-0.2612,-0.2702,0,0,0,-0.2478,-0.2504,-0.2467,-0.2492,-0.2493,-0.2584,-0.2575,-0.2566,-0.2573,-0.2593,-0.2623,-0.2623,-0.2612,-0.2612,-0.27,-0.2635,0,0,0,-0.243,-0.2504,-0.248,-0.2491,-0.252,-0.2583,-0.2553,-0.2569,-0.2602,-0.2623,-0.2623,-0.2613,-0.2612,-0.2698,-0.2634,-0.2543,0,0,0,-0.2493,-0.2475,-0.248,-0.2491,-0.2519,-0.2521,-0.2554,-0.2609,-0.2628,-0.2623,-0.2612,-0.2612,-0.2698,-0.2634,-0.2544,-0.2361,-0.234,0,0,-0.25,-0.2478,-0.2479,-0.2484,-0.2484,-0.2513,-0.2576,-0.2629,-0.2612,-0.2598,-0.2599,-0.2701,-0.2634,-0.2543,-0.2341,-0.232,0,0,0,-0.2501,-0.2455,-0.2477,-0.247,-0.2494,-0.2546,-0.2594,-0.2631,-0.2672,-0.262,-0.2668,-0.2619,-0.2561,-0.2454,-0.2437,-0.261,-0.261,-0.261,-0.2611,-0.255,-0.2499,-0.2468,-0.241,-0.247,-0.2561,-0.2613,-0.2644,-0.2672,-0.2707,-0.2676,-0.2626,-0.2519,-0.2503,-0.2707,-0.2707,-0.2708,-0.2708,-0.2708,-0.2483,-0.2401,-0.2408,-0.2353,-0.242,-0.2476,-0.261,-0.2667,-0.2671,-0.2717,-0.2659,-0.253,-0.2489,-0.2714,-0.2713,-0.2712,-0.2712,-0.2711,-0.2711,-0.2398,-0.2342,-0.2314,-0.2277,-0.2328,-0.2458,-0.2491,-0.2604,-0.265,-0.2639,-0.2433,-0.2429,-0.2612,-0.2608,-0.2607,-0.2606,-0.2606,-0.2605,-0.2605,-0.2351,-0.2296,-0.2186,-0.2199,-0.2205,-0.2287,-0.2403,-0.2409,-0.2396,-0.2406,-0.2405,-0.2588,-0.2591,-0.26,-0.2595,-0.2597,-0.2598,-0.2599,-0.26,-0.2199,-0.2176,-0.2032,-0.1987,-0.199,-0.1972,-0.2137,-0.209,-0.2092,-0.2019,-0.2258,-0.227,-0.2178,-0.2189,-0.2184,-0.2071,-0.2071,-0.2071,-0.2071,-0.2101,-0.2072,-0.1863,-0.176,-0.1739,-0.1805,-0.1665,-0.1682,-0.1775,-0.179,-0.1803,-0.1849,-0.1876,-0.1769,-0.179,-0.1778,-0.1559,-0.1559,-0.1558,-0.2016,-0.1954,-0.1771,-0.1629,-0.1602,-0.1565,-0.1409,-0.1304,-0.1356,-0.1544,-0.1774,-0.2025,-0.2132,-0.2158,-0.2027,-0.2049,-0.2042,0,0]},{"header":{"parameterUnit":"m.s-1","parameterCategory":2,"la1":30.2992,"la2":30.254,"lo1":-89.0895,"lo2":-89.0443,"dy":0.0025,"dx":0.0025,"nx":19,"ny":19,"refTime":"2026-03-08T09:00:00:Z","depth":"2","parameterNumber":3,"parameterNumberName":"V-component_of_CURRENTS"},"data":[0,0,0,-0.0818,-0.0815,-0.0692,-0.0691,-0.042,-0.0417,0,0,0,0,0,0,0,0,0,0,0,-0.0887,-0.0887,-0.0818,-0.0815,-0.0692,-0.0691,-0.042,-0.0417,0,0,0,0,0,0,0,0,0,0,0,-0.0888,-0.0887,-0.0887,-0.0814,-0.0692,-0.0691,-0.0421,-0.0543,0,0,0,0,0,0,0,0,0,0,-0.0678,-0.0734,-0.0887,-0.0887,-0.0813,-0.0692,-0.0691,-0.055,-0.0536,-0.0441,0,-0.044,0,-0.0402,-0.0395,-0.0394,0,0,0,-0.082,-0.0747,-0.0729,-0.0887,-0.0812,-0.0692,-0.0749,-0.0543,-0.0526,-0.0421,-0.0436,-0.0425,-0.0398,-0.0393,-0.0392,-0.0161,-0.0161,0,0,-0.0827,-0.0838,-0.0742,-0.072,-0.0798,-0.0753,-0.0745,-0.0534,-0.0511,-0.0435,-0.0419,-0.0393,-0.0391,-0.0389,-0.0161,-0.0161,0,0,0,-0.0843,-0.0843,-0.0833,-0.0731,-0.0706,-0.0749,-0.074,-0.0521,-0.0523,-0.0416,-0.039,-0.039,-0.0386,-0.0161,-0.0161,-0.0223,0,0,0,-0.0847,-0.0852,-0.0837,-0.0839,-0.0712,-0.0619,-0.0731,-0.0539,-0.0513,-0.0391,-0.0389,-0.0383,-0.0161,-0.0161,-0.0222,-0.0298,0,0,0,-0.089,-0.0854,-0.0852,-0.084,-0.0783,-0.0623,-0.0613,-0.0534,-0.0496,-0.0394,-0.0382,-0.0162,-0.0161,-0.0221,-0.0293,-0.0245,0,0,0,-0.089,-0.0911,-0.0853,-0.0848,-0.0785,-0.0716,-0.0614,-0.0522,-0.0443,-0.0388,-0.0161,-0.0161,-0.022,-0.0291,-0.0244,-0.0197,-0.0198,0,0,-0.0928,-0.0915,-0.0913,-0.0859,-0.0823,-0.0732,-0.0654,-0.0501,-0.0403,-0.0223,-0.0218,-0.0222,-0.0293,-0.0244,-0.0177,-0.0179,0,0,0,-0.0932,-0.0946,-0.0915,-0.0878,-0.0799,-0.0712,-0.0573,-0.0482,-0.0327,-0.0351,-0.0198,-0.0241,-0.0208,-0.0176,-0.0177,-0.0159,-0.016,-0.016,-0.016,-0.1013,-0.098,-0.0974,-0.0919,-0.0846,-0.0684,-0.0594,-0.0445,-0.0339,-0.0277,-0.0271,-0.0259,-0.0226,-0.0226,-0.0221,-0.0221,-0.0221,-0.0222,-0.0222,-0.1076,-0.109,-0.1019,-0.1002,-0.0891,-0.0809,-0.0589,-0.0495,-0.0336,-0.0287,-0.0248,-0.022,-0.0232,-0.0226,-0.0225,-0.0225,-0.0224,-0.0224,-0.0224,-0.1141,-0.1153,-0.1126,-0.1086,-0.102,-0.0869,-0.0753,-0.0595,-0.042,-0.0388,-0.0281,-0.0279,-0.0302,-0.034,-0.034,-0.034,-0.034,-0.034,-0.034,-0.1219,-0.1205,-0.1215,-0.1166,-0.1142,-0.1046,-0.0842,-0.0716,-0.0501,-0.0371,-0.0368,-0.0298,-0.0295,-0.0306,-0.0342,-0.0342,-0.0342,-0.0341,-0.0341,-0.1309,-0.1296,-0.1312,-0.13,-0.1227,-0.1157,-0.0976,-0.0695,-0.0545,-0.0432,-0.0311,-0.0311,-0.0281,-0.0277,-0.0287,-0.0316,-0.0316,-0.0316,-0.0316,-0.1369,-0.1367,-0.1375,-0.1358,-0.1312,-0.1188,-0.099,-0.0692,-0.042,-0.0276,-0.0278,-0.0249,-0.025,-0.0216,-0.0214,-0.0221,-0.0233,-0.0233,-0.0233,-0.1401,-0.14,-0.1411,-0.1384,-0.1337,-0.1205,-0.1004,-0.0651,-0.0283,-0.0232,-0.0286,-0.0306,-0.0266,-0.0267,-0.0215,-0.0212,-0.0224,0,0]}],[{"header":{"parameterUnit":"m.s-1","parameterCategory":2,"la1":30.2992,"la2":30.254,"lo1":-89.0895,"lo2":-89.0443,"dy":0.0025,"dx":0.0025,"nx":19,"ny":19,"refTime":"2026-03-08T09:00:00:Z","depth":"4","parameterNumber":2,"parameterNumberName":"U-component_of_CURRENTS"},"data":[0,0,0,-0.1261,-0.1265,-0.1443,-0.1443,-0.1565,-0.1566,0,0,0,0,0,0,0,0,0,0,0,-0.12,-0.1202,-0.126,-0.1265,-0.1443,-0.1443,-0.1565,-0.1566,0,0,0,0,0,0,0,0,0,0,0,-0.1199,-0.1201,-0.1203,-0.1266,-0.1442,-0.1443,-0.1565,-0.1455,0,0,0,0,0,0,0,0,0,0,-0.1294,-0.1227,-0.1201,-0.1203,-0.1267,-0.1442,-0.1443,-0.145,-0.1462,-0.1458,0,-0.1502,0,-0.154,-0.1573,-0.1573,0,0,0,-0.1256,-0.1218,-0.1298,-0.1204,-0.1269,-0.1442,-0.136,-0.1457,-0.147,-0.1472,-0.1504,-0.151,-0.1542,-0.1574,-0.1574,-0.1693,-0.1693,0,0,-0.1246,-0.1197,-0.129,-0.1307,-0.1335,-0.1354,-0.1365,-0.1466,-0.1465,-0.1505,-0.1513,-0.1544,-0.1574,-0.1575,-0.1692,-0.1693,0,0,0,-0.1224,-0.1189,-0.1268,-0.1301,-0.1344,-0.136,-0.1373,-0.146,-0.1497,-0.1515,-0.1545,-0.1575,-0.1576,-0.1691,-0.1692,-0.1749,0,0,0,-0.1218,-0.1178,-0.1264,-0.1231,-0.1343,-0.1411,-0.1364,-0.149,-0.1503,-0.1545,-0.1575,-0.1577,-0.1691,-0.1692,-0.1747,-0.1746,0,0,0,-0.1188,-0.1174,-0.1209,-0.1229,-0.1315,-0.1412,-0.1453,-0.1494,-0.1522,-0.1573,-0.1577,-0.169,-0.1692,-0.1744,-0.1742,-0.1752,0,0,0,-0.1111,-0.1141,-0.1207,-0.1261,-0.1313,-0.1439,-0.1453,-0.1535,-0.1583,-0.1575,-0.1691,-0.1692,-0.1743,-0.174,-0.175,-0.1511,0,0,0,-0.1101,-0.1138,-0.1177,-0.1241,-0.1343,-0.1412,-0.152,-0.1587,-0.1598,-0.1647,-0.1651,-0.1748,-0.1742,-0.1751,-0.1591,0,0,0,0,-0.1143,-0.1167,-0.1209,-0.1296,-0.1406,-0.1516,-0.1599,-0.1632,-0.1706,-0.1636,-0.1758,-0.1752,-0.1757,-0.1613,-0.1699,-0.1698,-0.1698,-0.1698,-0.1698,-0.1045,-0.1145,-0.1213,-0.1351,-0.1441,-0.1593,-0.167,-0.1734,-0.1748,-0.1791,-0.1809,-0.1864,-0.1717,-0.1832,-0.1832,-0.1833,-0.1833,-0.1833,-0.1833,-0.1051,-0.1099,-0.1237,-0.1341,-0.1493,-0.1603,-0.1757,-0.1799,-0.1878,-0.1872,-0.1874,-0.1695,-0.1839,-0.1838,-0.1837,-0.1836,-0.1836,-0.1835,-0.1835,-0.0981,-0.1016,-0.1123,-0.1298,-0.1446,-0.1618,-0.1728,-0.1844,-0.1901,-0.1935,-0.1764,-0.189,-0.1872,-0.1941,-0.1941,-0.1941,-0.1941,-0.1941,-0.1941,-0.0868,-0.0973,-0.1043,-0.1238,-0.134,-0.1505,-0.1718,-0.1775,-0.1873,-0.1782,-0.1944,-0.1899,-0.1896,-0.1878,-0.1942,-0.1942,-0.1942,-0.1942,-0.1942,-0.0777,-0.082,-0.0911,-0.101,-0.1247,-0.136,-0.1591,-0.1656,-0.1685,-0.164,-0.1694,-0.1705,-0.1651,-0.1654,-0.1625,-0.1617,-0.1614,-0.1611,0,-0.0679,-0.0716,-0.0801,-0.0909,-0.1053,-0.1269,-0.13,-0.1409,-0.148,-0.1419,-0.1667,-0.1725,-0.1732,-0.167,-0.1668,-0.1631,0,0,0,-0.0629,-0.0658,-0.0672,-0.0797,-0.0958,-0.1119,-0.1305,-0.1276,-0.1477,-0.1441,-0.1539,-0.1558,-0.1806,-0.1945,-0.189,-0.1886,-0.1853,0,0]},{"header":{"parameterUnit":"m.s-1","parameterCategory":2,"la1":30.2992,"la2":30.254,"lo1":-89.0895,"lo2":-89.0443,"dy":0.0025,"dx":0.0025,"nx":19,"ny":19,"refTime":"2026-03-08T09:00:00:Z","depth":"4","parameterNumber":3,"parameterNumberName":"V-component_of_CURRENTS"},"data":[0,0,0,-0.0678,-0.0678,-0.0667,-0.0667,-0.0549,-0.0547,0,0,0,0,0,0,0,0,0,0,0,-0.0686,-0.0686,-0.0678,-0.0678,-0.0667,-0.0667,-0.0549,-0.0547,0,0,0,0,0,0,0,0,0,0,0,-0.0686,-0.0686,-0.0686,-0.0678,-0.0667,-0.0667,-0.0549,-0.0583,0,0,0,0,0,0,0,0,0,0,-0.0606,-0.0633,-0.0686,-0.0686,-0.0678,-0.0667,-0.0667,-0.0586,-0.0581,-0.0524,0,-0.053,0,-0.0532,-0.0537,-0.0537,0,0,0,-0.0676,-0.0638,-0.0629,-0.0686,-0.0678,-0.0667,-0.0671,-0.0584,-0.0578,-0.0517,-0.0528,-0.0524,-0.053,-0.0536,-0.0536,-0.0406,-0.0405,0,0,-0.0676,-0.0683,-0.0634,-0.0626,-0.0681,-0.0672,-0.0671,-0.0581,-0.0578,-0.0528,-0.0522,-0.0528,-0.0535,-0.0534,-0.0406,-0.0405,0,0,0,-0.0679,-0.0684,-0.068,-0.063,-0.0635,-0.0672,-0.0671,-0.0583,-0.058,-0.0521,-0.0526,-0.0534,-0.0533,-0.0406,-0.0406,-0.0447,0,0,0,-0.068,-0.0685,-0.068,-0.0684,-0.0637,-0.0624,-0.0674,-0.0587,-0.0577,-0.0527,-0.0534,-0.0531,-0.0406,-0.0406,-0.0446,-0.0471,0,0,0,-0.0685,-0.0686,-0.0686,-0.0685,-0.068,-0.0626,-0.0619,-0.0586,-0.0579,-0.0537,-0.0531,-0.0407,-0.0406,-0.0446,-0.047,-0.0435,0,0,0,-0.0689,-0.0708,-0.0687,-0.0703,-0.0681,-0.0667,-0.062,-0.0606,-0.0577,-0.0534,-0.0406,-0.0406,-0.0446,-0.0469,-0.0435,-0.0432,0,0,0,-0.0719,-0.0712,-0.0721,-0.0701,-0.0702,-0.0667,-0.0642,-0.0589,-0.0539,-0.0428,-0.0426,-0.0446,-0.047,-0.0435,-0.039,0,0,0,0,-0.0733,-0.0741,-0.0736,-0.0731,-0.0706,-0.0673,-0.0622,-0.0574,-0.0497,-0.0518,-0.042,-0.0433,-0.0411,-0.0407,-0.0402,-0.0402,-0.0403,-0.0403,-0.0403,-0.0766,-0.0758,-0.0775,-0.0757,-0.0736,-0.0668,-0.0626,-0.0544,-0.0497,-0.0464,-0.0448,-0.0426,-0.0422,-0.0421,-0.0421,-0.0421,-0.0421,-0.0421,-0.0421,-0.0806,-0.0812,-0.0803,-0.0825,-0.0773,-0.074,-0.0616,-0.057,-0.0461,-0.0443,-0.0418,-0.0428,-0.0425,-0.0424,-0.0424,-0.0423,-0.0423,-0.0423,-0.0423,-0.0809,-0.0817,-0.0846,-0.0871,-0.0855,-0.0788,-0.0718,-0.062,-0.0509,-0.0479,-0.0434,-0.0434,-0.0451,-0.0456,-0.0456,-0.0456,-0.0456,-0.0456,-0.0456,-0.08,-0.083,-0.0877,-0.0911,-0.093,-0.0901,-0.0771,-0.0681,-0.056,-0.0473,-0.0484,-0.0436,-0.0435,-0.045,-0.0455,-0.0455,-0.0455,-0.0456,-0.0456,-0.0792,-0.0822,-0.0882,-0.0927,-0.0977,-0.0952,-0.0861,-0.066,-0.0555,-0.0455,-0.0446,-0.0446,-0.0423,-0.0422,-0.0436,-0.0437,-0.0437,-0.0437,0,-0.0784,-0.0803,-0.0887,-0.095,-0.0984,-0.0967,-0.0823,-0.07,-0.0544,-0.0549,-0.0563,-0.0563,-0.056,-0.0545,-0.0543,-0.0566,0,0,0,-0.0782,-0.0805,-0.0855,-0.0933,-0.0987,-0.0859,-0.0777,-0.0696,-0.0592,-0.0458,-0.0436,-0.0436,-0.0481,-0.0454,-0.0418,-0.0417,-0.0439,0,0]}]]